Wetterdaten: Freitag, 22.05.2015
Datum Zeit Auen-Temp. Temp gefhlt Luftfeuchte Luftdruck Regen Wind Richtung Richtung Taupunkt Windben
22.05.2015 00:00 4,6 C 4,4 C 90 % 1023,2 hPa 0,0 mm 0,0 km/h (0 Bft) NW 315 3,1 C 0,0 km/h (0 Bft)
22.05.2015 00:05 4,6 C 4,4 C 90 % 1023,2 hPa 0,0 mm 0,0 km/h (0 Bft) S-SW 202 3,1 C 0,0 km/h (0 Bft)
22.05.2015 00:10 4,7 C 4,5 C 90 % 1023,2 hPa 0,0 mm 0,0 km/h (0 Bft) O-NO 67 3,2 C 0,0 km/h (0 Bft)
22.05.2015 00:15 4,7 C 4,5 C 91 % 1023,2 hPa 0,0 mm 0,0 km/h (0 Bft) O-SO 112 3,4 C 0,0 km/h (0 Bft)
22.05.2015 00:20 4,7 C 4,5 C 91 % 1023,2 hPa 0,0 mm 1,0 km/h (0 Bft) SO 135 3,4 C 3,9 km/h (1 Bft)
22.05.2015 00:25 4,7 C 4,5 C 91 % 1023,2 hPa 0,0 mm 1,0 km/h (0 Bft) SO 135 3,4 C 0,0 km/h (0 Bft)
22.05.2015 00:30 4,7 C 4,5 C 91 % 1023,2 hPa 0,0 mm 0,3 km/h (0 Bft) SO 135 3,4 C 0,0 km/h (0 Bft)
22.05.2015 00:35 4,7 C 4,5 C 91 % 1022,9 hPa 0,0 mm 0,0 km/h (0 Bft) O-SO 112 3,4 C 0,0 km/h (0 Bft)
22.05.2015 00:40 4,7 C 4,5 C 91 % 1022,9 hPa 0,0 mm 0,0 km/h (0 Bft) O-SO 112 3,4 C 0,0 km/h (0 Bft)
22.05.2015 00:45 4,7 C 4,5 C 91 % 1022,9 hPa 0,0 mm 0,0 km/h (0 Bft) SO 135 3,4 C 0,0 km/h (0 Bft)
22.05.2015 00:50 4,7 C 4,5 C 91 % 1022,9 hPa 0,0 mm 0,0 km/h (0 Bft) W-SW 247 3,4 C 0,0 km/h (0 Bft)
22.05.2015 00:55 4,7 C 4,6 C 88 % 1022,9 hPa 0,0 mm 0,0 km/h (0 Bft) S-SO 157 2,9 C 0,0 km/h (0 Bft)
22.05.2015 01:00 4,7 C 4,6 C 88 % 1022,9 hPa 0,0 mm 0,0 km/h (0 Bft) O-SO 112 2,9 C 0,0 km/h (0 Bft)
22.05.2015 01:05 4,7 C 4,6 C 88 % 1022,9 hPa 0,0 mm 0,0 km/h (0 Bft) S-SO 157 2,9 C 0,0 km/h (0 Bft)
22.05.2015 01:10 4,7 C 4,6 C 88 % 1022,9 hPa 0,0 mm 0,0 km/h (0 Bft) NO 45 2,9 C 0,0 km/h (0 Bft)
22.05.2015 01:15 4,7 C 4,6 C 88 % 1022,9 hPa 0,0 mm 0,0 km/h (0 Bft) SO 135 2,9 C 0,0 km/h (0 Bft)
22.05.2015 01:20 4,7 C 4,6 C 88 % 1022,9 hPa 0,0 mm 0,0 km/h (0 Bft) SO 135 2,9 C 0,0 km/h (0 Bft)
22.05.2015 01:25 4,7 C 4,6 C 88 % 1022,9 hPa 0,0 mm 0,0 km/h (0 Bft) SO 135 2,9 C 0,0 km/h (0 Bft)
22.05.2015 01:30 4,7 C 4,6 C 88 % 1022,9 hPa 0,0 mm 0,0 km/h (0 Bft) O-NO 67 2,9 C 0,0 km/h (0 Bft)
22.05.2015 01:35 4,7 C 4,6 C 88 % 1022,8 hPa 0,0 mm 0,0 km/h (0 Bft) SO 135 2,9 C 0,0 km/h (0 Bft)
22.05.2015 01:40 4,8 C 4,6 C 91 % 1022,8 hPa 0,0 mm 0,0 km/h (0 Bft) SO 135 3,5 C 0,0 km/h (0 Bft)
22.05.2015 01:45 4,8 C 4,6 C 91 % 1022,8 hPa 0,0 mm 0,0 km/h (0 Bft) SO 135 3,5 C 0,0 km/h (0 Bft)
22.05.2015 01:50 4,8 C 4,6 C 91 % 1022,8 hPa 0,0 mm 0,0 km/h (0 Bft) SW 225 3,5 C 0,0 km/h (0 Bft)
22.05.2015 01:55 4,8 C 4,6 C 91 % 1022,8 hPa 0,0 mm 0,0 km/h (0 Bft) SO 135 3,5 C 0,0 km/h (0 Bft)
22.05.2015 02:00 4,7 C 4,6 C 88 % 1022,8 hPa 0,0 mm 0,8 km/h (0 Bft) S 180 2,9 C 0,0 km/h (0 Bft)
22.05.2015 02:05 4,7 C 4,6 C 88 % 1022,8 hPa 0,0 mm 0,8 km/h (0 Bft) S 180 2,9 C 0,0 km/h (0 Bft)
22.05.2015 02:10 4,7 C 4,5 C 91 % 1022,8 hPa 0,0 mm 0,0 km/h (0 Bft) S 180 3,4 C 0,0 km/h (0 Bft)
22.05.2015 02:15 4,7 C 4,5 C 91 % 1022,9 hPa 0,0 mm 0,0 km/h (0 Bft) O 90 3,4 C 0,0 km/h (0 Bft)
22.05.2015 02:20 4,7 C 4,5 C 91 % 1022,9 hPa 0,0 mm 0,0 km/h (0 Bft) S-SO 157 3,4 C 0,0 km/h (0 Bft)
22.05.2015 02:25 4,7 C 4,5 C 91 % 1022,9 hPa 0,0 mm 0,0 km/h (0 Bft) S-SO 157 3,4 C 0,0 km/h (0 Bft)
22.05.2015 02:30 4,7 C 4,5 C 91 % 1022,9 hPa 0,0 mm 0,0 km/h (0 Bft) W 270 3,4 C 0,0 km/h (0 Bft)
22.05.2015 02:35 4,7 C 4,5 C 91 % 1022,8 hPa 0,0 mm 0,0 km/h (0 Bft) W-NW 292 3,4 C 0,0 km/h (0 Bft)
22.05.2015 02:40 4,7 C 4,5 C 91 % 1022,8 hPa 0,0 mm 0,0 km/h (0 Bft) NW 315 3,4 C 0,0 km/h (0 Bft)
22.05.2015 02:45 4,7 C 4,5 C 91 % 1022,8 hPa 0,0 mm 0,0 km/h (0 Bft) W 270 3,4 C 0,0 km/h (0 Bft)
22.05.2015 02:50 4,7 C 4,5 C 91 % 1022,8 hPa 0,0 mm 0,0 km/h (0 Bft) W-SW 247 3,4 C 0,0 km/h (0 Bft)
22.05.2015 02:55 4,7 C 4,5 C 91 % 1022,9 hPa 0,0 mm 0,0 km/h (0 Bft) S-SW 202 3,4 C 0,0 km/h (0 Bft)
22.05.2015 03:00 4,7 C 4,5 C 91 % 1022,9 hPa 0,0 mm 0,0 km/h (0 Bft) S 180 3,4 C 0,0 km/h (0 Bft)
22.05.2015 03:05 4,7 C 4,6 C 92 % 1022,9 hPa 0,0 mm 0,0 km/h (0 Bft) S 180 3,5 C 0,0 km/h (0 Bft)
22.05.2015 03:10 4,8 C 4,6 C 92 % 1022,9 hPa 0,0 mm 0,0 km/h (0 Bft) O-SO 112 3,6 C 0,0 km/h (0 Bft)
22.05.2015 03:15 4,8 C 4,7 C 92 % 1022,9 hPa 0,0 mm 0,0 km/h (0 Bft) O 90 3,6 C 0,0 km/h (0 Bft)
22.05.2015 03:20 4,8 C 4,7 C 92 % 1022,9 hPa 0,0 mm 0,0 km/h (0 Bft) S 180 3,6 C 0,0 km/h (0 Bft)
22.05.2015 03:25 4,8 C 4,7 C 89 % 1022,9 hPa 0,0 mm 0,0 km/h (0 Bft) W 270 3,1 C 0,0 km/h (0 Bft)
22.05.2015 03:30 4,8 C 4,7 C 89 % 1022,9 hPa 0,0 mm 0,0 km/h (0 Bft) S 180 3,1 C 0,0 km/h (0 Bft)
22.05.2015 03:35 4,8 C 4,7 C 89 % 1022,8 hPa 0,0 mm 0,0 km/h (0 Bft) S-SO 157 3,1 C 0,0 km/h (0 Bft)
22.05.2015 03:40 4,8 C 4,7 C 89 % 1022,8 hPa 0,0 mm 0,0 km/h (0 Bft) S-SO 157 3,1 C 0,0 km/h (0 Bft)
22.05.2015 03:45 4,8 C 4,7 C 92 % 1022,8 hPa 0,0 mm 0,0 km/h (0 Bft) S-SO 157 3,6 C 0,0 km/h (0 Bft)
22.05.2015 03:50 4,8 C 4,7 C 89 % 1022,8 hPa 0,0 mm 0,0 km/h (0 Bft) W-SW 247 3,1 C 0,0 km/h (0 Bft)
22.05.2015 03:55 4,9 C 4,7 C 92 % 1022,7 hPa 0,0 mm 0,3 km/h (0 Bft) W 270 3,7 C 0,0 km/h (0 Bft)
22.05.2015 04:00 4,9 C 4,8 C 92 % 1022,7 hPa 0,0 mm 1,0 km/h (0 Bft) S-SW 202 3,7 C 0,0 km/h (0 Bft)
22.05.2015 04:05 4,9 C 4,8 C 92 % 1022,7 hPa 0,0 mm 1,0 km/h (0 Bft) S 180 3,7 C 2,8 km/h (1 Bft)
22.05.2015 04:10 4,9 C 4,8 C 92 % 1022,7 hPa 0,0 mm 0,5 km/h (0 Bft) S 180 3,7 C 0,0 km/h (0 Bft)
22.05.2015 04:15 4,9 C 4,8 C 89 % 1022,6 hPa 0,0 mm 0,5 km/h (0 Bft) S 180 3,2 C 0,0 km/h (0 Bft)
22.05.2015 04:20 4,9 C 4,8 C 92 % 1022,6 hPa 0,0 mm 0,3 km/h (0 Bft) SO 135 3,7 C 0,0 km/h (0 Bft)
22.05.2015 04:25 4,9 C 4,8 C 89 % 1022,6 hPa 0,0 mm 0,0 km/h (0 Bft) O 90 3,2 C 0,0 km/h (0 Bft)
22.05.2015 04:30 4,9 C 4,8 C 89 % 1022,6 hPa 0,0 mm 0,0 km/h (0 Bft) O-NO 67 3,2 C 0,0 km/h (0 Bft)
22.05.2015 04:35 5,0 C 4,9 C 92 % 1022,6 hPa 0,0 mm 0,5 km/h (0 Bft) W-SW 247 3,8 C 4,4 km/h (1 Bft)
22.05.2015 04:40 5,0 C 4,9 C 92 % 1022,6 hPa 0,0 mm 0,5 km/h (0 Bft) O-NO 67 3,8 C 0,0 km/h (0 Bft)
22.05.2015 04:45 5,0 C 4,9 C 89 % 1022,6 hPa 0,0 mm 0,5 km/h (0 Bft) O-SO 112 3,3 C 0,0 km/h (0 Bft)
22.05.2015 04:50 5,0 C 4,9 C 89 % 1022,6 hPa 0,0 mm 0,0 km/h (0 Bft) O 90 3,3 C 0,0 km/h (0 Bft)
22.05.2015 04:55 5,0 C 4,9 C 89 % 1022,4 hPa 0,0 mm 0,0 km/h (0 Bft) SO 135 3,3 C 0,0 km/h (0 Bft)
22.05.2015 05:00 5,0 C 4,9 C 92 % 1022,4 hPa 0,0 mm 0,0 km/h (0 Bft) SO 135 3,8 C 0,0 km/h (0 Bft)
22.05.2015 05:05 5,0 C 4,9 C 89 % 1022,4 hPa 0,0 mm 0,0 km/h (0 Bft) SO 135 3,3 C 0,0 km/h (0 Bft)
22.05.2015 05:10 5,0 C 4,9 C 89 % 1022,4 hPa 0,0 mm 0,0 km/h (0 Bft) SO 135 3,3 C 0,0 km/h (0 Bft)
22.05.2015 05:15 5,0 C 4,9 C 89 % 1022,3 hPa 0,0 mm 0,0 km/h (0 Bft) SO 135 3,3 C 0,0 km/h (0 Bft)
22.05.2015 05:20 5,0 C 4,9 C 89 % 1022,3 hPa 0,0 mm 0,0 km/h (0 Bft) SO 135 3,3 C 0,0 km/h (0 Bft)
22.05.2015 05:25 5,0 C 4,9 C 89 % 1022,3 hPa 0,0 mm 0,0 km/h (0 Bft) SO 135 3,3 C 0,0 km/h (0 Bft)
22.05.2015 05:30 5,0 C 4,9 C 89 % 1022,3 hPa 0,0 mm 0,0 km/h (0 Bft) SO 135 3,3 C 0,0 km/h (0 Bft)
22.05.2015 05:35 5,0 C 4,9 C 89 % 1022,4 hPa 0,0 mm 0,0 km/h (0 Bft) SO 135 3,3 C 0,0 km/h (0 Bft)
22.05.2015 05:40 5,0 C 4,9 C 89 % 1022,4 hPa 0,0 mm 0,0 km/h (0 Bft) SO 135 3,3 C 0,0 km/h (0 Bft)
22.05.2015 05:45 5,0 C 4,9 C 89 % 1022,4 hPa 0,0 mm 0,0 km/h (0 Bft) SO 135 3,3 C 0,0 km/h (0 Bft)
22.05.2015 05:50 5,0 C 4,9 C 89 % 1022,4 hPa 0,0 mm 0,0 km/h (0 Bft) SO 135 3,3 C 0,0 km/h (0 Bft)
22.05.2015 05:55 5,0 C 5,0 C 89 % 1022,2 hPa 0,0 mm 0,0 km/h (0 Bft) SO 135 3,3 C 0,0 km/h (0 Bft)
22.05.2015 06:00 5,0 C 5,0 C 89 % 1022,2 hPa 0,0 mm 0,0 km/h (0 Bft) SO 135 3,3 C 0,0 km/h (0 Bft)
22.05.2015 06:05 5,0 C 5,0 C 89 % 1022,2 hPa 0,0 mm 0,0 km/h (0 Bft) SO 135 3,3 C 0,0 km/h (0 Bft)
22.05.2015 06:10 5,1 C 5,0 C 92 % 1022,2 hPa 0,0 mm 0,0 km/h (0 Bft) SO 135 3,9 C 0,0 km/h (0 Bft)
22.05.2015 06:15 5,1 C 5,0 C 92 % 1022,2 hPa 0,0 mm 0,0 km/h (0 Bft) SO 135 3,9 C 0,0 km/h (0 Bft)
22.05.2015 06:20 5,1 C 5,0 C 92 % 1022,2 hPa 0,0 mm 0,0 km/h (0 Bft) SO 135 3,9 C 0,0 km/h (0 Bft)
22.05.2015 06:25 5,1 C 5,1 C 89 % 1022,2 hPa 0,0 mm 0,0 km/h (0 Bft) N-NO 22 3,4 C 0,0 km/h (0 Bft)
22.05.2015 06:30 5,1 C 5,1 C 89 % 1022,2 hPa 0,0 mm 0,0 km/h (0 Bft) N-NO 22 3,4 C 0,0 km/h (0 Bft)
22.05.2015 06:35 5,1 C 5,1 C 89 % 1022,3 hPa 0,0 mm 0,0 km/h (0 Bft) O 90 3,4 C 0,0 km/h (0 Bft)
22.05.2015 06:40 5,2 C 5,2 C 89 % 1022,3 hPa 0,0 mm 0,0 km/h (0 Bft) O 90 3,5 C 0,0 km/h (0 Bft)
22.05.2015 06:45 5,2 C 5,2 C 89 % 1022,3 hPa 0,0 mm 0,0 km/h (0 Bft) SO 135 3,5 C 0,0 km/h (0 Bft)
22.05.2015 06:50 5,2 C 5,2 C 89 % 1022,3 hPa 0,0 mm 0,0 km/h (0 Bft) SO 135 3,5 C 0,0 km/h (0 Bft)
22.05.2015 06:55 5,2 C 5,2 C 89 % 1022,4 hPa 0,0 mm 0,0 km/h (0 Bft) SO 135 3,5 C 0,0 km/h (0 Bft)
22.05.2015 07:00 5,2 C 5,3 C 89 % 1022,4 hPa 0,0 mm 0,0 km/h (0 Bft) SO 135 3,5 C 0,0 km/h (0 Bft)
22.05.2015 07:05 5,2 C 5,2 C 89 % 1022,4 hPa 0,0 mm 0,0 km/h (0 Bft) SO 135 3,5 C 0,0 km/h (0 Bft)
22.05.2015 07:10 5,3 C 5,3 C 89 % 1022,4 hPa 0,0 mm 0,0 km/h (0 Bft) N-NO 22 3,6 C 0,0 km/h (0 Bft)
22.05.2015 07:15 5,3 C 5,3 C 89 % 1022,4 hPa 0,7 mm 0,0 km/h (0 Bft) S-SO 157 3,6 C 0,0 km/h (0 Bft)
22.05.2015 07:20 5,3 C 5,4 C 89 % 1022,4 hPa 0,0 mm 0,0 km/h (0 Bft) O-NO 67 3,6 C 0,0 km/h (0 Bft)
22.05.2015 07:25 5,3 C 5,4 C 89 % 1022,4 hPa 0,0 mm 0,0 km/h (0 Bft) SO 135 3,6 C 0,0 km/h (0 Bft)
22.05.2015 07:30 5,4 C 5,4 C 89 % 1022,4 hPa 0,0 mm 0,0 km/h (0 Bft) NW 315 3,7 C 0,0 km/h (0 Bft)
22.05.2015 07:35 5,4 C 5,5 C 89 % 1022,5 hPa 0,0 mm 0,0 km/h (0 Bft) NW 315 3,7 C 0,0 km/h (0 Bft)
22.05.2015 07:40 5,4 C 5,5 C 89 % 1022,5 hPa 0,0 mm 0,0 km/h (0 Bft) NO 45 3,7 C 0,0 km/h (0 Bft)
22.05.2015 07:45 5,5 C 5,6 C 89 % 1022,5 hPa 0,0 mm 0,0 km/h (0 Bft) NO 45 3,8 C 0,0 km/h (0 Bft)
22.05.2015 07:50 5,6 C 5,6 C 89 % 1022,5 hPa 0,0 mm 0,0 km/h (0 Bft) N-NO 22 3,9 C 0,0 km/h (0 Bft)
22.05.2015 07:55 5,6 C 5,7 C 89 % 1022,3 hPa 0,0 mm 0,0 km/h (0 Bft) NO 45 3,9 C 0,0 km/h (0 Bft)
22.05.2015 08:00 5,6 C 5,8 C 89 % 1022,3 hPa 0,0 mm 0,0 km/h (0 Bft) NW 315 3,9 C 0,0 km/h (0 Bft)
22.05.2015 08:05 5,6 C 5,7 C 89 % 1022,3 hPa 0,0 mm 0,0 km/h (0 Bft) N-NW 337 3,9 C 0,0 km/h (0 Bft)
22.05.2015 08:10 5,7 C 5,7 C 89 % 1022,3 hPa 0,0 mm 0,0 km/h (0 Bft) O-NO 67 4,0 C 0,0 km/h (0 Bft)
22.05.2015 08:15 5,7 C 5,8 C 89 % 1022,3 hPa 0,0 mm 0,0 km/h (0 Bft) N-NO 22 4,0 C 0,0 km/h (0 Bft)
22.05.2015 08:20 5,7 C 5,8 C 89 % 1022,3 hPa 0,0 mm 0,0 km/h (0 Bft) O-NO 67 4,0 C 0,0 km/h (0 Bft)
22.05.2015 08:25 5,7 C 5,9 C 89 % 1022,3 hPa 0,0 mm 0,0 km/h (0 Bft) N-NO 22 4,0 C 0,0 km/h (0 Bft)
22.05.2015 08:30 5,9 C 6,2 C 89 % 1022,3 hPa 0,0 mm 0,0 km/h (0 Bft) W-NW 292 4,2 C 0,0 km/h (0 Bft)
22.05.2015 08:35 5,9 C 6,2 C 89 % 1022,4 hPa 0,0 mm 0,0 km/h (0 Bft) NW 315 4,2 C 0,0 km/h (0 Bft)
22.05.2015 08:40 6,0 C 6,2 C 88 % 1022,4 hPa 0,0 mm 0,0 km/h (0 Bft) N-NW 337 4,2 C 0,0 km/h (0 Bft)
22.05.2015 08:45 6,0 C 6,3 C 88 % 1022,4 hPa 0,0 mm 0,0 km/h (0 Bft) W-NW 292 4,2 C 0,0 km/h (0 Bft)
22.05.2015 08:50 6,1 C 6,3 C 88 % 1022,4 hPa 0,0 mm 0,0 km/h (0 Bft) NW 315 4,3 C 2,8 km/h (1 Bft)
22.05.2015 08:55 6,1 C 6,3 C 88 % 1022,4 hPa 0,0 mm 0,0 km/h (0 Bft) W-NW 292 4,3 C 0,0 km/h (0 Bft)
22.05.2015 09:00 6,2 C 6,4 C 88 % 1022,4 hPa 0,0 mm 0,3 km/h (0 Bft) W-NW 292 4,4 C 4,7 km/h (1 Bft)
22.05.2015 09:05 6,2 C 6,3 C 88 % 1022,4 hPa 0,0 mm 0,3 km/h (0 Bft) SW 225 4,4 C 2,8 km/h (1 Bft)
22.05.2015 09:10 6,2 C 6,4 C 88 % 1022,4 hPa 0,0 mm 0,5 km/h (0 Bft) W 270 4,4 C 0,0 km/h (0 Bft)
22.05.2015 09:15 6,2 C 6,5 C 88 % 1022,4 hPa 0,0 mm 0,3 km/h (0 Bft) S 180 4,4 C 0,0 km/h (0 Bft)
22.05.2015 09:20 6,3 C 6,7 C 88 % 1022,4 hPa 0,0 mm 0,0 km/h (0 Bft) O-NO 67 4,5 C 0,0 km/h (0 Bft)
22.05.2015 09:25 6,3 C 6,6 C 88 % 1022,4 hPa 0,0 mm 0,3 km/h (0 Bft) N-NO 22 4,5 C 2,6 km/h (1 Bft)
22.05.2015 09:30 6,3 C 6,5 C 88 % 1022,4 hPa 0,0 mm 0,3 km/h (0 Bft) O-NO 67 4,5 C 0,0 km/h (0 Bft)
22.05.2015 09:35 6,3 C 6,6 C 88 % 1022,4 hPa 0,0 mm 0,0 km/h (0 Bft) N-NO 22 4,5 C 0,0 km/h (0 Bft)
22.05.2015 09:40 6,4 C 6,6 C 88 % 1022,4 hPa 0,0 mm 0,3 km/h (0 Bft) O-SO 112 4,6 C 0,0 km/h (0 Bft)
22.05.2015 09:45 6,4 C 6,6 C 88 % 1022,4 hPa 0,0 mm 0,3 km/h (0 Bft) N-NO 22 4,6 C 0,0 km/h (0 Bft)
22.05.2015 09:50 6,4 C 6,5 C 88 % 1022,4 hPa 0,0 mm 0,0 km/h (0 Bft) N-NW 337 4,6 C 2,8 km/h (1 Bft)
22.05.2015 09:55 6,4 C 6,5 C 88 % 1022,6 hPa 0,0 mm 0,0 km/h (0 Bft) O-NO 67 4,6 C 0,0 km/h (0 Bft)
22.05.2015 10:00 6,4 C 6,5 C 88 % 1022,6 hPa 0,0 mm 0,0 km/h (0 Bft) SO 135 4,6 C 0,0 km/h (0 Bft)
22.05.2015 10:05 6,5 C 6,6 C 88 % 1022,6 hPa 0,0 mm 0,0 km/h (0 Bft) O-SO 112 4,7 C 0,0 km/h (0 Bft)
22.05.2015 10:10 6,4 C 6,6 C 88 % 1022,6 hPa 0,0 mm 0,0 km/h (0 Bft) O-NO 67 4,6 C 0,0 km/h (0 Bft)
22.05.2015 10:15 6,4 C 6,6 C 88 % 1022,6 hPa 0,0 mm 0,0 km/h (0 Bft) SO 135 4,6 C 0,0 km/h (0 Bft)
22.05.2015 10:20 6,4 C 6,7 C 88 % 1022,6 hPa 0,0 mm 0,0 km/h (0 Bft) O-SO 112 4,6 C 0,0 km/h (0 Bft)
22.05.2015 10:25 6,4 C 6,7 C 88 % 1022,6 hPa 0,0 mm 0,0 km/h (0 Bft) SO 135 4,6 C 0,0 km/h (0 Bft)
22.05.2015 10:30 6,4 C 6,7 C 88 % 1022,6 hPa 0,0 mm 0,0 km/h (0 Bft) SO 135 4,6 C 0,0 km/h (0 Bft)
22.05.2015 10:35 6,4 C 6,7 C 87 % 1022,6 hPa 0,0 mm 0,0 km/h (0 Bft) S-SO 157 4,4 C 0,0 km/h (0 Bft)
22.05.2015 10:40 6,4 C 6,7 C 87 % 1022,6 hPa 0,0 mm 0,0 km/h (0 Bft) S 180 4,4 C 0,0 km/h (0 Bft)
22.05.2015 10:45 6,5 C 6,8 C 88 % 1022,6 hPa 0,0 mm 0,0 km/h (0 Bft) S 180 4,7 C 0,0 km/h (0 Bft)
22.05.2015 10:50 6,6 C 7,0 C 87 % 1022,6 hPa 0,0 mm 0,0 km/h (0 Bft) O-NO 67 4,6 C 0,0 km/h (0 Bft)
22.05.2015 10:55 6,7 C 7,1 C 87 % 1022,3 hPa 0,0 mm 0,0 km/h (0 Bft) O 90 4,7 C 0,0 km/h (0 Bft)
22.05.2015 11:00 6,8 C 7,2 C 87 % 1022,3 hPa 0,0 mm 0,0 km/h (0 Bft) NO 45 4,8 C 0,0 km/h (0 Bft)
22.05.2015 11:05 6,8 C 7,3 C 87 % 1022,3 hPa 0,0 mm 0,3 km/h (0 Bft) NO 45 4,8 C 0,0 km/h (0 Bft)
22.05.2015 11:10 6,9 C 7,6 C 87 % 1022,3 hPa 0,0 mm 0,3 km/h (0 Bft) NO 45 4,9 C 0,0 km/h (0 Bft)
22.05.2015 11:15 6,9 C 7,4 C 87 % 1022,5 hPa 0,0 mm 0,5 km/h (0 Bft) O-NO 67 4,9 C 2,6 km/h (1 Bft)
22.05.2015 11:20 6,9 C 7,2 C 87 % 1022,5 hPa 0,0 mm 0,8 km/h (0 Bft) O-NO 67 4,9 C 0,0 km/h (0 Bft)
22.05.2015 11:25 6,9 C 7,2 C 87 % 1022,5 hPa 0,0 mm 0,3 km/h (0 Bft) O-SO 112 4,9 C 0,0 km/h (0 Bft)
22.05.2015 11:30 7,0 C 7,3 C 87 % 1022,5 hPa 0,0 mm 0,5 km/h (0 Bft) O-NO 67 5,0 C 0,0 km/h (0 Bft)
22.05.2015 11:35 7,0 C 7,3 C 87 % 1022,5 hPa 0,0 mm 1,8 km/h (1 Bft) O-NO 67 5,0 C 2,8 km/h (1 Bft)
22.05.2015 11:40 7,0 C 7,4 C 87 % 1022,5 hPa 0,0 mm 2,6 km/h (1 Bft) N-NO 22 5,0 C 5,7 km/h (1 Bft)
22.05.2015 11:45 6,9 C 7,2 C 87 % 1022,5 hPa 0,0 mm 3,1 km/h (1 Bft) NO 45 4,9 C 7,0 km/h (2 Bft)
22.05.2015 11:50 6,9 C 7,1 C 87 % 1022,5 hPa 0,0 mm 4,1 km/h (1 Bft) NO 45 4,9 C 5,4 km/h (1 Bft)
22.05.2015 11:55 6,9 C 7,1 C 87 % 1022,4 hPa 0,0 mm 4,1 km/h (1 Bft) O-SO 112 4,9 C 2,8 km/h (1 Bft)
22.05.2015 12:00 7,1 C 7,4 C 86 % 1022,4 hPa 0,0 mm 2,3 km/h (1 Bft) O-NO 67 4,9 C 4,9 km/h (1 Bft)
22.05.2015 12:05 7,1 C 7,5 C 86 % 1022,4 hPa 0,0 mm 1,8 km/h (1 Bft) SW 225 4,9 C 0,0 km/h (0 Bft)
22.05.2015 12:10 7,1 C 7,7 C 86 % 1022,4 hPa 0,0 mm 2,8 km/h (1 Bft) N-NO 22 4,9 C 4,7 km/h (1 Bft)
22.05.2015 12:15 7,1 C 7,8 C 86 % 1022,2 hPa 0,0 mm 3,6 km/h (1 Bft) N-NW 337 4,9 C 0,0 km/h (0 Bft)
22.05.2015 12:20 7,2 C 8,1 C 86 % 1022,2 hPa 0,0 mm 2,6 km/h (1 Bft) O-NO 67 5,0 C 3,6 km/h (1 Bft)
22.05.2015 12:25 7,3 C 8,3 C 86 % 1022,2 hPa 0,0 mm 1,8 km/h (1 Bft) NO 45 5,1 C 0,0 km/h (0 Bft)
22.05.2015 12:30 7,3 C 8,4 C 86 % 1022,2 hPa 0,0 mm 3,4 km/h (1 Bft) O 90 5,1 C 2,6 km/h (1 Bft)
22.05.2015 12:35 7,4 C 8,6 C 86 % 1022,2 hPa 0,0 mm 3,6 km/h (1 Bft) NO 45 5,2 C 6,2 km/h (2 Bft)
22.05.2015 12:40 7,4 C 8,6 C 86 % 1022,2 hPa 0,0 mm 3,9 km/h (1 Bft) O-NO 67 5,2 C 7,3 km/h (2 Bft)
22.05.2015 12:45 7,4 C 8,5 C 86 % 1022,2 hPa 0,0 mm 4,7 km/h (1 Bft) O-NO 67 5,2 C 6,2 km/h (2 Bft)
22.05.2015 12:50 7,4 C 8,7 C 86 % 1022,2 hPa 0,0 mm 4,4 km/h (1 Bft) NO 45 5,2 C 7,5 km/h (2 Bft)
22.05.2015 12:55 7,6 C 9,0 C 86 % 1022,1 hPa 0,0 mm 4,4 km/h (1 Bft) O-NO 67 5,4 C 11,1 km/h (2 Bft)
22.05.2015 13:00 7,8 C 9,6 C 86 % 1022,1 hPa 0,0 mm 6,0 km/h (2 Bft) O-NO 67 5,6 C 6,7 km/h (2 Bft)
22.05.2015 13:05 7,8 C 9,8 C 86 % 1022,1 hPa 0,0 mm 6,5 km/h (2 Bft) O-NO 67 5,6 C 10,6 km/h (2 Bft)
22.05.2015 13:10 8,1 C 10,3 C 85 % 1022,1 hPa 0,0 mm 4,7 km/h (1 Bft) O 90 5,7 C 4,9 km/h (1 Bft)
22.05.2015 13:15 8,3 C 10,6 C 85 % 1022,1 hPa 0,0 mm 3,9 km/h (1 Bft) O-SO 112 5,9 C 4,4 km/h (1 Bft)
22.05.2015 13:20 8,2 C 10,5 C 85 % 1022,1 hPa 0,0 mm 2,8 km/h (1 Bft) O-SO 112 5,8 C 0,0 km/h (0 Bft)
22.05.2015 13:25 8,2 C 10,3 C 85 % 1022,1 hPa 0,0 mm 3,4 km/h (1 Bft) O-SO 112 5,8 C 5,7 km/h (1 Bft)
22.05.2015 13:30 8,3 C 10,5 C 85 % 1022,1 hPa 0,0 mm 3,1 km/h (1 Bft) N 360 5,9 C 6,5 km/h (2 Bft)
22.05.2015 13:35 8,3 C 10,6 C 84 % 1022,1 hPa 0,0 mm 3,9 km/h (1 Bft) O-NO 67 5,8 C 10,4 km/h (2 Bft)
22.05.2015 13:40 8,5 C 10,7 C 84 % 1022,1 hPa 0,0 mm 3,4 km/h (1 Bft) O-SO 112 6,0 C 0,0 km/h (0 Bft)
22.05.2015 13:45 8,5 C 10,7 C 84 % 1022,1 hPa 0,0 mm 3,1 km/h (1 Bft) SW 225 6,0 C 0,0 km/h (0 Bft)
22.05.2015 13:50 8,6 C 10,7 C 84 % 1022,1 hPa 0,0 mm 1,6 km/h (1 Bft) N-NO 22 6,1 C 2,8 km/h (1 Bft)
22.05.2015 13:55 8,7 C 10,9 C 83 % 1021,7 hPa 0,0 mm 2,3 km/h (1 Bft) O-NO 67 6,0 C 5,7 km/h (1 Bft)
22.05.2015 14:00 9,2 C 11,8 C 83 % 1021,7 hPa 0,0 mm 3,1 km/h (1 Bft) O-SO 112 6,5 C 0,0 km/h (0 Bft)
22.05.2015 14:05 9,4 C 12,5 C 82 % 1021,7 hPa 0,0 mm 3,9 km/h (1 Bft) O-NO 67 6,5 C 8,5 km/h (2 Bft)
22.05.2015 14:10 9,3 C 12,8 C 81 % 1021,7 hPa 0,0 mm 4,7 km/h (1 Bft) NO 45 6,2 C 0,0 km/h (0 Bft)
22.05.2015 14:15 9,2 C 12,8 C 81 % 1021,6 hPa 0,0 mm 2,8 km/h (1 Bft) O-NO 67 6,1 C 0,0 km/h (0 Bft)
22.05.2015 14:20 9,6 C 13,0 C 81 % 1021,6 hPa 0,0 mm 1,8 km/h (1 Bft) O-NO 67 6,5 C 3,9 km/h (1 Bft)
22.05.2015 14:25 10,0 C 13,9 C 81 % 1021,6 hPa 0,0 mm 2,3 km/h (1 Bft) O-NO 67 6,9 C 4,7 km/h (1 Bft)
22.05.2015 14:30 9,9 C 14,3 C 80 % 1021,6 hPa 0,0 mm 1,8 km/h (1 Bft) N-NO 22 6,6 C 0,0 km/h (0 Bft)
22.05.2015 14:35 9,9 C 14,2 C 80 % 1021,4 hPa 0,0 mm 1,6 km/h (1 Bft) O-SO 112 6,6 C 3,9 km/h (1 Bft)
22.05.2015 14:40 9,7 C 13,4 C 79 % 1021,4 hPa 0,0 mm 2,3 km/h (1 Bft) SO 135 6,2 C 0,0 km/h (0 Bft)
22.05.2015 14:45 9,8 C 13,1 C 79 % 1021,4 hPa 0,0 mm 2,1 km/h (1 Bft) NO 45 6,3 C 0,0 km/h (0 Bft)
22.05.2015 14:50 9,9 C 12,8 C 79 % 1021,4 hPa 0,0 mm 1,0 km/h (0 Bft) W-NW 292 6,4 C 0,0 km/h (0 Bft)
22.05.2015 14:55 9,9 C 12,8 C 79 % 1021,3 hPa 0,0 mm 1,8 km/h (1 Bft) O 90 6,4 C 9,6 km/h (2 Bft)
22.05.2015 15:00 9,6 C 11,9 C 78 % 1021,3 hPa 0,0 mm 1,8 km/h (1 Bft) O-NO 67 6,0 C 0,0 km/h (0 Bft)
22.05.2015 15:05 9,7 C 11,6 C 79 % 1021,3 hPa 0,0 mm 1,3 km/h (1 Bft) NW 315 6,2 C 0,0 km/h (0 Bft)
22.05.2015 15:10 9,4 C 11,3 C 79 % 1021,3 hPa 0,0 mm 0,8 km/h (0 Bft) SO 135 5,9 C 0,0 km/h (0 Bft)
22.05.2015 15:15 9,5 C 11,2 C 79 % 1021,2 hPa 0,0 mm 1,0 km/h (0 Bft) N-NO 22 6,0 C 2,6 km/h (1 Bft)
22.05.2015 15:20 9,4 C 11,2 C 79 % 1021,2 hPa 0,0 mm 0,5 km/h (0 Bft) S 180 5,9 C 0,0 km/h (0 Bft)
22.05.2015 15:25 9,4 C 11,1 C 79 % 1021,2 hPa 0,0 mm 0,3 km/h (0 Bft) S-SO 157 5,9 C 0,0 km/h (0 Bft)
22.05.2015 15:30 9,4 C 10,8 C 78 % 1021,2 hPa 0,0 mm 1,3 km/h (1 Bft) N 360 5,8 C 5,4 km/h (1 Bft)
22.05.2015 15:35 9,4 C 10,8 C 78 % 1021,1 hPa 0,0 mm 1,8 km/h (1 Bft) O-SO 112 5,8 C 2,6 km/h (1 Bft)
22.05.2015 15:40 9,4 C 10,8 C 78 % 1021,1 hPa 0,0 mm 1,8 km/h (1 Bft) N-NW 337 5,8 C 0,0 km/h (0 Bft)
22.05.2015 15:45 9,4 C 10,6 C 78 % 1021,1 hPa 0,0 mm 1,8 km/h (1 Bft) N-NO 22 5,8 C 0,0 km/h (0 Bft)
22.05.2015 15:50 9,4 C 10,4 C 78 % 1021,1 hPa 0,0 mm 1,3 km/h (1 Bft) SO 135 5,8 C 0,0 km/h (0 Bft)
22.05.2015 15:55 9,3 C 10,2 C 78 % 1020,9 hPa 0,0 mm 0,3 km/h (0 Bft) NO 45 5,7 C 0,0 km/h (0 Bft)
22.05.2015 16:00 8,9 C 10,0 C 79 % 1020,9 hPa 0,0 mm 0,3 km/h (0 Bft) O-SO 112 5,5 C 0,0 km/h (0 Bft)
22.05.2015 16:05 8,8 C 9,8 C 79 % 1020,9 hPa 0,0 mm 0,3 km/h (0 Bft) SO 135 5,4 C 0,0 km/h (0 Bft)
22.05.2015 16:10 8,7 C 9,2 C 80 % 1020,9 hPa 0,0 mm 0,0 km/h (0 Bft) S-SO 157 5,4 C 0,0 km/h (0 Bft)
22.05.2015 16:15 8,7 C 8,9 C 80 % 1020,8 hPa 0,0 mm 0,5 km/h (0 Bft) N-NW 337 5,4 C 3,9 km/h (1 Bft)
22.05.2015 16:20 8,8 C 8,8 C 80 % 1020,8 hPa 0,0 mm 2,1 km/h (1 Bft) N-NW 337 5,5 C 4,4 km/h (1 Bft)
22.05.2015 16:25 8,9 C 8,9 C 80 % 1020,8 hPa 0,0 mm 3,4 km/h (1 Bft) N-NO 22 5,6 C 6,2 km/h (2 Bft)
22.05.2015 16:30 8,9 C 8,9 C 81 % 1020,8 hPa 0,0 mm 3,4 km/h (1 Bft) N-NO 22 5,8 C 3,1 km/h (1 Bft)
22.05.2015 16:35 8,9 C 8,9 C 81 % 1020,7 hPa 0,0 mm 4,4 km/h (1 Bft) NO 45 5,8 C 9,1 km/h (2 Bft)
22.05.2015 16:40 8,9 C 8,9 C 81 % 1020,7 hPa 0,0 mm 4,1 km/h (1 Bft) N-NO 22 5,8 C 12,4 km/h (3 Bft)
22.05.2015 16:45 8,8 C 8,7 C 81 % 1020,7 hPa 0,0 mm 6,0 km/h (2 Bft) O-SO 112 5,7 C 7,3 km/h (2 Bft)
22.05.2015 16:50 8,3 C 8,1 C 81 % 1020,7 hPa 0,7 mm 6,0 km/h (2 Bft) N-NO 22 5,2 C 0,0 km/h (0 Bft)
22.05.2015 16:55 8,2 C 8,1 C 81 % 1020,8 hPa 0,0 mm 3,1 km/h (1 Bft) N 360 5,1 C 16,3 km/h (3 Bft)
22.05.2015 17:00 7,9 C 7,9 C 81 % 1020,8 hPa 0,0 mm 0,5 km/h (0 Bft) W-SW 247 4,8 C 0,0 km/h (0 Bft)
22.05.2015 17:05 8,0 C 8,2 C 81 % 1020,8 hPa 0,0 mm 0,3 km/h (0 Bft) S 180 4,9 C 0,0 km/h (0 Bft)
22.05.2015 17:10 8,1 C 8,3 C 82 % 1020,8 hPa 0,0 mm 0,3 km/h (0 Bft) W-NW 292 5,2 C 0,0 km/h (0 Bft)
22.05.2015 17:15 8,2 C 8,4 C 82 % 1020,4 hPa 0,0 mm 0,0 km/h (0 Bft) W 270 5,3 C 0,0 km/h (0 Bft)
22.05.2015 17:20 8,2 C 8,3 C 82 % 1020,4 hPa 0,0 mm 0,8 km/h (0 Bft) W-SW 247 5,3 C 4,7 km/h (1 Bft)
22.05.2015 17:25 8,0 C 8,0 C 82 % 1020,4 hPa 0,0 mm 2,1 km/h (1 Bft) W 270 5,1 C 7,0 km/h (2 Bft)
22.05.2015 17:30 7,5 C 7,6 C 82 % 1020,4 hPa 0,0 mm 4,7 km/h (1 Bft) NW 315 4,6 C 0,0 km/h (0 Bft)
22.05.2015 17:35 7,4 C 7,7 C 82 % 1020,4 hPa 0,0 mm 4,4 km/h (1 Bft) NW 315 4,5 C 0,0 km/h (0 Bft)
22.05.2015 17:40 7,6 C 7,9 C 83 % 1020,4 hPa 0,0 mm 1,3 km/h (1 Bft) S 180 4,9 C 0,0 km/h (0 Bft)
22.05.2015 17:45 7,8 C 8,2 C 83 % 1020,4 hPa 0,0 mm 0,5 km/h (0 Bft) W-SW 247 5,1 C 0,0 km/h (0 Bft)
22.05.2015 17:50 8,1 C 8,5 C 83 % 1020,4 hPa 0,0 mm 0,0 km/h (0 Bft) SO 135 5,4 C 0,0 km/h (0 Bft)
22.05.2015 17:55 8,2 C 8,8 C 83 % 1020,3 hPa 0,0 mm 0,0 km/h (0 Bft) NW 315 5,5 C 0,0 km/h (0 Bft)
22.05.2015 18:00 8,4 C 8,9 C 83 % 1020,3 hPa 0,0 mm 0,0 km/h (0 Bft) N-NW 337 5,7 C 0,0 km/h (0 Bft)
22.05.2015 18:05 8,4 C 9,0 C 83 % 1020,3 hPa 0,0 mm 0,0 km/h (0 Bft) NW 315 5,7 C 0,0 km/h (0 Bft)
22.05.2015 18:10 8,6 C 9,2 C 83 % 1020,3 hPa 0,0 mm 0,3 km/h (0 Bft) NO 45 5,9 C 3,4 km/h (1 Bft)
22.05.2015 18:15 8,7 C 9,2 C 83 % 1020,2 hPa 0,0 mm 0,3 km/h (0 Bft) W-SW 247 6,0 C 0,0 km/h (0 Bft)
22.05.2015 18:20 8,8 C 9,4 C 83 % 1020,2 hPa 0,0 mm 0,3 km/h (0 Bft) SW 225 6,1 C 0,0 km/h (0 Bft)
22.05.2015 18:25 8,8 C 9,5 C 83 % 1020,2 hPa 0,0 mm 0,0 km/h (0 Bft) NW 315 6,1 C 0,0 km/h (0 Bft)
22.05.2015 18:30 8,9 C 9,4 C 83 % 1020,2 hPa 0,0 mm 0,3 km/h (0 Bft) O-NO 67 6,2 C 3,1 km/h (1 Bft)
22.05.2015 18:35 8,9 C 9,3 C 83 % 1020,2 hPa 0,0 mm 0,3 km/h (0 Bft) S 180 6,2 C 0,0 km/h (0 Bft)
22.05.2015 18:40 8,6 C 8,7 C 83 % 1020,2 hPa 0,0 mm 0,3 km/h (0 Bft) S-SO 157 5,9 C 0,0 km/h (0 Bft)
22.05.2015 18:45 8,4 C 8,5 C 83 % 1020,2 hPa 0,0 mm 0,3 km/h (0 Bft) O-SO 112 5,7 C 0,0 km/h (0 Bft)
22.05.2015 18:50 8,1 C 8,2 C 83 % 1020,2 hPa 0,0 mm 0,0 km/h (0 Bft) O-SO 112 5,4 C 0,0 km/h (0 Bft)
22.05.2015 18:55 8,1 C 8,1 C 83 % 1020,1 hPa 0,0 mm 0,0 km/h (0 Bft) S-SO 157 5,4 C 0,0 km/h (0 Bft)
22.05.2015 19:00 7,9 C 8,0 C 83 % 1020,1 hPa 0,0 mm 0,0 km/h (0 Bft) SO 135 5,2 C 0,0 km/h (0 Bft)
22.05.2015 19:05 7,9 C 8,0 C 83 % 1020,1 hPa 0,0 mm 0,0 km/h (0 Bft) S-SO 157 5,2 C 0,0 km/h (0 Bft)
22.05.2015 19:10 8,0 C 8,1 C 83 % 1020,1 hPa 0,0 mm 0,0 km/h (0 Bft) O-SO 112 5,3 C 0,0 km/h (0 Bft)
22.05.2015 19:15 8,0 C 8,1 C 83 % 1019,9 hPa 0,0 mm 0,0 km/h (0 Bft) O 90 5,3 C 0,0 km/h (0 Bft)
22.05.2015 19:20 8,0 C 8,2 C 83 % 1019,9 hPa 0,0 mm 0,0 km/h (0 Bft) NW 315 5,3 C 2,6 km/h (1 Bft)
22.05.2015 19:25 8,0 C 8,2 C 83 % 1019,9 hPa 0,0 mm 0,0 km/h (0 Bft) O-NO 67 5,3 C 0,0 km/h (0 Bft)
22.05.2015 19:30 7,9 C 8,1 C 84 % 1019,9 hPa 0,0 mm 0,0 km/h (0 Bft) O 90 5,4 C 0,0 km/h (0 Bft)
22.05.2015 19:35 7,9 C 8,0 C 84 % 1020,1 hPa 0,0 mm 0,0 km/h (0 Bft) O-SO 112 5,4 C 0,0 km/h (0 Bft)
22.05.2015 19:40 7,8 C 7,8 C 84 % 1020,1 hPa 0,0 mm 0,0 km/h (0 Bft) NO 45 5,3 C 0,0 km/h (0 Bft)
22.05.2015 19:45 7,8 C 7,8 C 84 % 1020,1 hPa 0,0 mm 0,3 km/h (0 Bft) O-SO 112 5,3 C 0,0 km/h (0 Bft)
22.05.2015 19:50 7,6 C 7,6 C 84 % 1020,1 hPa 0,0 mm 0,3 km/h (0 Bft) O-SO 112 5,1 C 0,0 km/h (0 Bft)
22.05.2015 19:55 7,5 C 7,5 C 84 % 1019,9 hPa 0,0 mm 0,0 km/h (0 Bft) O-NO 67 5,0 C 0,0 km/h (0 Bft)
22.05.2015 20:00 7,4 C 7,3 C 84 % 1019,9 hPa 0,0 mm 0,0 km/h (0 Bft) SO 135 4,9 C 0,0 km/h (0 Bft)
22.05.2015 20:05 7,4 C 7,2 C 85 % 1019,9 hPa 0,0 mm 0,0 km/h (0 Bft) NO 45 5,0 C 0,0 km/h (0 Bft)
22.05.2015 20:10 7,3 C 7,1 C 86 % 1019,9 hPa 0,0 mm 0,0 km/h (0 Bft) O-NO 67 5,1 C 0,0 km/h (0 Bft)
22.05.2015 20:15 7,2 C 7,1 C 84 % 1019,7 hPa 0,0 mm 0,0 km/h (0 Bft) NO 45 4,7 C 0,0 km/h (0 Bft)
22.05.2015 20:20 7,2 C 7,0 C 86 % 1019,7 hPa 0,0 mm 0,0 km/h (0 Bft) O-SO 112 5,0 C 0,0 km/h (0 Bft)
22.05.2015 20:25 7,2 C 7,0 C 86 % 1019,7 hPa 0,0 mm 0,0 km/h (0 Bft) N-NO 22 5,0 C 0,0 km/h (0 Bft)
22.05.2015 20:30 7,1 C 6,9 C 86 % 1019,7 hPa 0,0 mm 0,3 km/h (0 Bft) W-SW 247 4,9 C 3,4 km/h (1 Bft)
22.05.2015 20:35 7,1 C 6,9 C 86 % 1019,9 hPa 0,0 mm 0,3 km/h (0 Bft) N-NO 22 4,9 C 0,0 km/h (0 Bft)
22.05.2015 20:40 7,1 C 6,9 C 87 % 1019,9 hPa 0,0 mm 0,5 km/h (0 Bft) NW 315 5,1 C 2,6 km/h (1 Bft)
22.05.2015 20:45 7,0 C 6,9 C 85 % 1019,9 hPa 0,0 mm 0,3 km/h (0 Bft) O-SO 112 4,7 C 0,0 km/h (0 Bft)
22.05.2015 20:50 7,0 C 6,8 C 87 % 1019,9 hPa 0,0 mm 0,3 km/h (0 Bft) N-NO 22 5,0 C 0,0 km/h (0 Bft)
22.05.2015 20:55 6,9 C 6,7 C 87 % 1020,2 hPa 0,0 mm 0,3 km/h (0 Bft) N-NW 337 4,9 C 0,0 km/h (0 Bft)
22.05.2015 21:00 6,9 C 6,7 C 87 % 1020,2 hPa 0,0 mm 0,0 km/h (0 Bft) O-NO 67 4,9 C 0,0 km/h (0 Bft)
22.05.2015 21:05 6,8 C 6,7 C 87 % 1020,2 hPa 0,0 mm 0,0 km/h (0 Bft) S 180 4,8 C 0,0 km/h (0 Bft)
22.05.2015 21:10 6,7 C 6,5 C 87 % 1020,2 hPa 0,0 mm 0,0 km/h (0 Bft) O-NO 67 4,7 C 0,0 km/h (0 Bft)
22.05.2015 21:15 6,7 C 6,5 C 88 % 1020,2 hPa 0,0 mm 0,0 km/h (0 Bft) O-NO 67 4,9 C 0,0 km/h (0 Bft)
22.05.2015 21:20 6,6 C 6,4 C 88 % 1020,2 hPa 0,0 mm 0,0 km/h (0 Bft) O 90 4,8 C 0,0 km/h (0 Bft)
22.05.2015 21:25 6,6 C 6,4 C 88 % 1020,2 hPa 0,0 mm 0,0 km/h (0 Bft) SO 135 4,8 C 0,0 km/h (0 Bft)
22.05.2015 21:30 6,6 C 6,4 C 88 % 1020,2 hPa 0,0 mm 0,3 km/h (0 Bft) SW 225 4,8 C 3,9 km/h (1 Bft)
22.05.2015 21:35 6,5 C 6,4 C 86 % 1020,1 hPa 0,7 mm 0,3 km/h (0 Bft) SW 225 4,3 C 2,8 km/h (1 Bft)
22.05.2015 21:40 6,5 C 6,3 C 88 % 1020,1 hPa 0,0 mm 0,3 km/h (0 Bft) S-SO 157 4,7 C 0,0 km/h (0 Bft)
22.05.2015 21:45 6,4 C 6,3 C 86 % 1020,1 hPa 0,0 mm 0,0 km/h (0 Bft) S-SO 157 4,2 C 0,0 km/h (0 Bft)
22.05.2015 21:50 6,4 C 6,2 C 88 % 1020,1 hPa 0,0 mm 0,0 km/h (0 Bft) SO 135 4,6 C 0,0 km/h (0 Bft)
22.05.2015 21:55 6,4 C 6,2 C 88 % 1020,1 hPa 0,0 mm 0,0 km/h (0 Bft) SO 135 4,6 C 0,0 km/h (0 Bft)
22.05.2015 22:00 6,4 C 6,2 C 88 % 1020,1 hPa 0,0 mm 0,0 km/h (0 Bft) O-NO 67 4,6 C 0,0 km/h (0 Bft)
22.05.2015 22:05 6,3 C 6,1 C 88 % 1020,1 hPa 0,0 mm 0,0 km/h (0 Bft) O-SO 112 4,5 C 0,0 km/h (0 Bft)
22.05.2015 22:10 6,3 C 6,2 C 86 % 1020,1 hPa 0,0 mm 0,0 km/h (0 Bft) O-NO 67 4,1 C 0,0 km/h (0 Bft)
22.05.2015 22:15 6,3 C 6,2 C 86 % 1020,2 hPa 0,0 mm 0,0 km/h (0 Bft) S-SO 157 4,1 C 0,0 km/h (0 Bft)
22.05.2015 22:20 6,3 C 6,1 C 88 % 1020,2 hPa 0,0 mm 0,0 km/h (0 Bft) S 180 4,5 C 0,0 km/h (0 Bft)
22.05.2015 22:25 6,3 C 6,1 C 88 % 1020,2 hPa 0,0 mm 0,0 km/h (0 Bft) W-SW 247 4,5 C 0,0 km/h (0 Bft)
22.05.2015 22:30 6,3 C 6,1 C 88 % 1020,2 hPa 0,0 mm 0,0 km/h (0 Bft) W 270 4,5 C 0,0 km/h (0 Bft)
22.05.2015 22:35 6,3 C 6,1 C 89 % 1020,1 hPa 0,0 mm 0,0 km/h (0 Bft) N 360 4,6 C 0,0 km/h (0 Bft)
22.05.2015 22:40 6,3 C 6,1 C 89 % 1020,1 hPa 0,0 mm 0,0 km/h (0 Bft) NW 315 4,6 C 0,0 km/h (0 Bft)
22.05.2015 22:45 6,3 C 6,1 C 89 % 1020,1 hPa 0,0 mm 0,0 km/h (0 Bft) NW 315 4,6 C 0,0 km/h (0 Bft)
22.05.2015 22:50 6,3 C 6,2 C 89 % 1020,1 hPa 0,0 mm 0,0 km/h (0 Bft) N-NO 22 4,6 C 0,0 km/h (0 Bft)
22.05.2015 22:55 6,3 C 6,2 C 89 % 1020,1 hPa 0,0 mm 0,0 km/h (0 Bft) N-NO 22 4,6 C 0,0 km/h (0 Bft)
22.05.2015 23:00 6,3 C 6,2 C 89 % 1020,1 hPa 0,0 mm 0,0 km/h (0 Bft) O-NO 67 4,6 C 0,0 km/h (0 Bft)
22.05.2015 23:05 6,2 C 6,1 C 89 % 1020,1 hPa 0,0 mm 0,0 km/h (0 Bft) W-SW 247 4,5 C 0,0 km/h (0 Bft)
22.05.2015 23:10 6,2 C 6,0 C 89 % 1020,1 hPa 0,0 mm 0,0 km/h (0 Bft) SW 225 4,5 C 0,0 km/h (0 Bft)
22.05.2015 23:15 6,2 C 6,1 C 89 % 1019,8 hPa 0,0 mm 0,0 km/h (0 Bft) O-SO 112 4,5 C 0,0 km/h (0 Bft)
22.05.2015 23:20 6,1 C 6,0 C 89 % 1019,8 hPa 0,0 mm 0,0 km/h (0 Bft) N-NO 22 4,4 C 0,0 km/h (0 Bft)
22.05.2015 23:25 6,1 C 6,0 C 89 % 1019,8 hPa 0,0 mm 0,3 km/h (0 Bft) S-SW 202 4,4 C 3,1 km/h (1 Bft)
22.05.2015 23:30 6,0 C 5,9 C 89 % 1019,8 hPa 0,0 mm 0,3 km/h (0 Bft) NO 45 4,3 C 0,0 km/h (0 Bft)
22.05.2015 23:35 6,0 C 5,9 C 89 % 1019,5 hPa 0,0 mm 0,3 km/h (0 Bft) N-NW 337 4,3 C 0,0 km/h (0 Bft)
22.05.2015 23:40 6,0 C 5,8 C 89 % 1019,5 hPa 0,0 mm 0,0 km/h (0 Bft) O 90 4,3 C 0,0 km/h (0 Bft)
22.05.2015 23:45 6,0 C 5,8 C 89 % 1019,5 hPa 0,0 mm 0,3 km/h (0 Bft) NW 315 4,3 C 0,0 km/h (0 Bft)
22.05.2015 23:50 6,0 C 5,8 C 89 % 1019,5 hPa 0,0 mm 0,8 km/h (0 Bft) W-NW 292 4,3 C 0,0 km/h (0 Bft)
22.05.2015 23:55 6,0 C 5,8 C 89 % 1019,4 hPa 0,0 mm 0,8 km/h (0 Bft) O-SO 112 4,3 C 0,0 km/h (0 Bft)
_ Min-Zeit 00:05 00:05 15:55 23:55 - 23:40 - - 02:05 23:55
Minimum _ 4,6 C 4,4 C 78 % 1019,4 hPa - 0,0 km/h (0 Bft) - - 2,9 C 0,0 km/h (0 Bft)
_ Max-Zeit 14:25 14:30 06:20 00:30 21:35 13:05 - - 14:25 16:55
Maximum _ 10,0 C 14,3 C 92 % 1023,2 hPa 0,7 mm 6,5 km/h
O-NO (2 Bft)
- - 6,9 C 16,3 km/h
N (3 Bft)
Durchschnitt _ 6,6 C 7,0 C 87 % 1021,6 hPa #2,1 mm 0,7 km/h (0 Bft) O-NO - 4,5 C 1,1 km/h (0 Bft)